sat.trackr.live / text

‹ back to catalog

HULIANWAN GAOGUI-03 (H*)

NORAD 61503 · 2024-181A

PAYLOAD ACTIVE UNKNOWN

§ Identity

Operator
Country
PRC
Launch date
2024-10-10
Launch site
XICLF
Launch vehicle
Mass (kg)
RCS (m²)

Purposes: comms

External: N2YO · Heavens-Above · Gunter

§ Orbital elements

Epoch: 2026-05-25T05:59:06.830304Z

Period
1,436.16 min
Inclination
0.0449°
Eccentricity
0.0001099
Mean motion
1.00267359 rev/d
Perigee alt
35,783.2 km
Apogee alt
35,792.5 km
Semi-major
42,166.0 km
B*
0.0000e+0
RAAN
359.0759°
Arg perigee
97.0461°
Mean anomaly
159.3433°
Rev number
659

§ Raw data

HULIANWAN GAOGUI-03 (H*)1 61503U 24181A   26145.24938461 -.00000243  00000+0  00000+0 0  99942 61503   0.0449 359.0759 0001099  97.0461 159.3433  1.00267359  6599

JSON: /api/v1/satellites/61503 · /tle

For live sub-satellite position, see the globe view (requires WebGL).

§ Visibility from observer

Set your observer location to see the next 7 days of passes ≥ 10°. The values pass through the URL so the page stays shareable.

No JS? Fill the form by hand. The geolocation button needs JavaScript.